Temp
16 16 14 15 13 14 14 13 14 14 13 14 14 13 14 15 14 14 14 14 14 14
15 15 14 14 14 15 14 14 14 14 14 13 13 13 14 14 14 14 14 14 14 13
15 16 15 14 13 14 15 15 14 14 14 14 13 14 14 14 14 14 14 13 13 14
13 14 14 14 13 14 15 14 14 14 13 14 13 13 14 13 14 14 14 14 14 14
13 13 14 14 14 14 15 15 14 14 13 13 14 13 14 14 13 14 14 14 14 14
12 13 14 14 14 14 14 14 14 14 13 13 14 14 13 14 14 14 14 14 14 15
12 13 14 14 14 14 14 14 14 14 14 13 13 13 13 13 14 13 13 14 14 15
11 11 13 14 14 13 14 14 14 14 13 13 13 13 13 13 13 13 13 13 14 14
9 12 12 13 13 13 13 14 14 13 13 13 13 13 13 13 13 13 13 13 13 13
6 10 9 12 12 12 13 13 13 14 13 13 13 14 14 14 13 13 13 13 13 13
3 5 8 11 11 12 12 12 12 13 14 13 14 14 14 13 13 14 14 13 13 13
0 2 6 9 11 10 11 11 11 12 13 13 13 13 13 13 13 13 13 13 13 13
-1 -1 3 6 9 10 10 11 11 12 13 13 13 14 13 13 13 13 13 13 13 12
-1 -1 -0 3 5 7 10 12 11 11 12 12 13 13 13 13 13 13 13 13 13 12
Height
1423 1430 1440 1445 1451 1456 1461 1466 1475 1481 1490 1498 1501 1508 1513 1518 1523 1526 1529 1533 1537 1542
1423 1427 1431 1438 1445 1449 1454 1458 1466 1474 1480 1489 1494 1501 1506 1510 1516 1520 1524 1528 1532 1536
1421 1423 1431 1434 1439 1443 1448 1454 1459 1467 1473 1481 1485 1494 1500 1505 1511 1514 1518 1523 1527 1531
1412 1419 1425 1427 1431 1438 1445 1449 1453 1459 1466 1471 1477 1485 1492 1498 1503 1508 1512 1517 1521 1525
1406 1413 1418 1423 1424 1429 1435 1443 1447 1452 1459 1464 1468 1476 1483 1488 1493 1499 1504 1510 1515 1518
1401 1404 1409 1415 1419 1423 1427 1435 1440 1445 1450 1457 1461 1466 1474 1478 1483 1490 1496 1501 1507 1511
1395 1398 1401 1407 1410 1416 1420 1427 1432 1437 1442 1449 1454 1458 1464 1471 1477 1483 1488 1493 1498 1502
1393 1391 1394 1398 1401 1405 1411 1418 1426 1430 1435 1442 1446 1450 1455 1461 1469 1475 1480 1484 1488 1493
1384 1382 1374 1391 1395 1396 1402 1409 1417 1422 1427 1433 1438 1442 1448 1453 1458 1465 1471 1475 1480 1484
1378 1378 1385 1382 1382 1381 1388 1396 1403 1413 1419 1424 1430 1434 1438 1444 1450 1455 1461 1466 1472 1477
1382 1380 1382 1373 1375 1370 1378 1387 1389 1399 1409 1416 1421 1427 1432 1437 1441 1443 1450 1455 1461 1467
1386 1375 1369 1373 1367 1377 1375 1372 1388 1391 1400 1407 1413 1418 1426 1433 1436 1439 1441 1446 1450 1455
1390 1383 1374 1368 1368 1368 1369 1372 1372 1382 1390 1398 1404 1412 1419 1425 1428 1432 1435 1440 1445 1451
1390 1391 1377 1372 1364 1371 1368 1363 1372 1371 1384 1390 1396 1402 1409 1414 1417 1421 1428 1432 1436 1443
Wind_Speed
50 44 45 42 48 52 54 53 54 54 57 48 45 45 45 40 40 38 33 33 31 32
48 54 42 42 46 47 52 49 53 58 60 55 44 48 48 40 40 38 35 34 31 29
47 48 54 40 47 50 49 51 51 54 52 56 48 49 49 42 40 38 37 36 34 31
49 50 52 54 44 51 48 52 51 52 55 61 55 51 50 47 42 40 39 37 37 37
45 49 51 60 46 55 51 52 53 51 55 59 61 59 55 53 47 44 43 40 38 37
35 52 51 55 58 51 53 52 54 53 55 58 59 59 60 56 55 49 48 44 41 38
20 48 52 54 60 55 55 54 54 55 52 55 61 57 56 56 56 56 52 48 44 41
26 23 49 54 58 58 53 56 56 54 54 53 56 55 55 54 53 54 53 49 45 41
30 27 18 48 57 60 59 54 59 58 55 56 55 53 53 51 51 49 50 50 45 41
5 24 35 40 45 64 60 54 57 62 60 56 55 52 49 49 49 49 49 47 45 42
22 5 31 32 37 44 53 57 56 58 59 60 56 55 51 50 49 44 44 44 42 40
32 25 6 14 26 34 34 31 48 55 54 56 58 54 51 48 52 52 48 43 42 43
44 34 23 3 20 17 31 25 50 54 54 53 51 55 49 50 48 51 48 46 44 42
48 44 35 19 8 8 22 20 33 56 47 51 51 47 50 50 51 52 51 50 47 42
Wind_Direction
204 195 203 214 211 206 208 209 206 205 204 205 207 217 219 225 223 228 227 221 212 213
207 200 197 210 216 211 210 210 209 202 207 205 205 213 215 215 219 224 225 220 214 216
218 212 205 207 216 216 209 208 206 205 205 202 205 212 216 218 219 221 223 221 220 221
227 219 208 207 215 215 213 211 212 209 206 206 205 210 214 218 221 223 225 224 223 224
225 231 215 212 211 214 213 213 214 214 210 212 211 211 214 218 222 222 223 223 225 226
238 231 228 216 213 215 213 214 215 217 216 216 216 214 218 219 223 224 228 230 230 232
253 234 240 221 219 215 213 212 215 218 219 218 219 222 220 222 222 224 229 233 235 236
248 259 236 226 220 215 210 213 219 217 218 219 218 220 222 222 223 226 229 232 235 236
247 255 264 233 224 215 213 213 215 216 216 218 218 220 222 224 223 225 226 230 232 235
336 231 261 224 228 215 212 212 215 216 217 218 222 221 221 222 223 226 228 229 231 232
28 23 223 230 231 232 216 212 211 214 217 219 222 225 223 222 221 221 225 228 230 230
25 21 338 228 222 236 229 219 218 215 215 219 222 225 227 222 220 223 224 226 227 226
29 30 30 39 211 234 226 231 232 219 216 218 222 224 223 221 218 220 224 226 225 229
26 29 38 37 99 232 224 227 241 218 216 218 222 223 220 216 216 220 225 227 225 231